Zurück zum Katalog

NOAA 16 DEB

AktivPO
NORAD 41514·DEBRIS·🇺🇸 United States

Gestartet Sep 21, 2000 von Vandenberg Space Force Base

Loading…

Nächste Überflüge (nächste 24 Stunden)

TLE

AktuellSource: Space-Track

Epoche: Sep 14, 2026, 09:46 UTC

1 41514U 00055MN  26257.40726221  .00013000  00000-0  16938-2 0  9994
2 41514  98.8930 113.4609 0020593  67.2386 293.0997 14.80595609544053

Verfolge NOAA 16 DEB in Echtzeit mit AllMySat

Download on the App Store